Location: Invercargill
(46.4000°S, 168.3500°E)
Time: 16:09:42
(UTC+13:00)

Cosmos 1745 Rocket - Pass Details

Date: 24 January 2019
Orbit: 953 x 997 km, 83.0° (Epoch: 18 February)

Event Time Altitude Azimuth Distance (km) Brightness Sun altitude
Exits shadow 23:05:13 12° 8° (N) 2,610 5.7 -13.6°
Maximum altitude 23:11:03 63° 87° (E) 1,113 4.1 -14.3°
Drops below altitude 10° 23:17:21 10° 166° (SSE) 2,780 6.9 -15.0°
Sets 23:19:54 0° 168° (SSE) 3,729 7.7 -15.2°
